Wind_Speed
64 63 61 62 58 52 47 44 40 33 27 23 22 18 19 18 17 16 12 10 9 5 3 1 6 3 5 5 10 21 27 25 20 17 19 17 16 17 19 17 16 18 19 18
67 68 72 68 63 58 52 49 47 42 36 31 27 24 23 22 19 19 18 14 10 6 7 6 2 1 3 6 8 19 23 28 25 20 18 16 14 15 14 15 12 13 14 15
75 75 73 72 70 66 61 57 55 50 44 38 32 28 26 24 24 23 18 16 11 9 5 7 5 2 5 2 9 15 21 23 27 23 20 17 13 12 11 13 11 10 10 10
79 80 77 74 74 72 67 65 62 57 50 47 40 34 32 30 28 23 22 19 15 11 8 7 10 5 1 3 9 11 21 24 23 21 22 22 17 15 12 10 9 8 7 8
84 84 81 79 78 78 75 72 68 64 58 52 42 39 39 34 30 27 27 21 19 14 12 8 13 10 6 7 7 8 15 24 24 21 24 23 19 16 11 9 7 6 5 5
94 90 86 84 83 82 83 76 75 70 65 56 49 44 43 39 39 33 30 25 22 17 14 11 15 15 11 9 9 11 11 21 25 25 26 22 19 18 14 11 7 4 2 1
100 97 93 91 87 86 83 83 79 77 69 56 57 50 49 48 44 40 34 28 23 19 19 16 16 18 14 9 6 11 14 19 23 25 24 24 23 22 16 13 10 7 4 3
99 103 101 96 93 90 86 86 83 78 73 64 64 53 52 54 52 46 39 35 28 28 26 23 19 21 21 15 10 6 11 15 22 24 24 25 26 24 20 15 14 11 8 7
98 103 105 102 100 95 90 88 81 85 81 72 67 62 59 58 55 50 44 39 36 35 31 27 24 21 24 24 18 14 12 14 17 18 23 25 26 26 24 19 16 14 12 10
106 102 106 109 106 101 97 92 93 87 81 74 72 68 61 62 60 57 51 47 45 41 35 32 29 24 24 27 23 17 14 14 16 12 19 25 25 25 25 25 20 17 16 13
109 110 103 112 112 109 104 99 94 89 81 79 76 71 68 67 64 62 56 55 52 47 42 37 33 29 24 22 23 25 20 20 18 19 19 25 28 28 27 27 24 22 21 17
104 110 108 113 118 114 109 102 99 96 85 81 81 77 75 68 73 69 62 60 56 52 46 42 35 30 29 26 22 25 26 24 23 24 24 25 28 29 30 29 27 24 22 20
100 104 111 115 118 121 119 115 107 99 92 86 83 79 77 76 77 72 68 64 60 56 51 46 40 38 35 31 27 25 25 28 26 25 27 28 29 32 33 31 29 27 25 24
98 102 108 116 124 130 122 116 113 103 95 91 84 83 82 83 83 77 68 64 62 59 55 52 47 43 40 36 32 29 28 26 27 26 27 30 30 34 33 32 31 29 28 27
95 101 107 115 119 121 122 117 115 108 100 94 92 87 90 88 80 77 75 69 65 61 58 55 48 45 42 37 37 34 32 29 26 25 28 33 33 33 33 31 34 33 32 29
89 97 104 110 119 120 123 124 119 113 107 101 94 89 92 86 85 84 78 73 67 64 62 57 51 48 44 42 41 41 37 35 34 33 31 33 32 33 33 36 35 37 37 35
78 89 98 108 114 115 119 122 123 117 113 109 100 96 93 93 91 86 81 76 72 68 66 61 56 54 51 49 45 44 44 41 39 37 36 32 32 32 35 36 38 40 40 37
68 77 86 102 109 111 117 123 123 121 115 114 109 101 94 94 89 88 83 79 76 72 69 65 62 58 56 52 49 46 45 46 45 40 37 36 34 36 35 36 39 42 41 41
59 67 77 88 100 112 113 112 116 120 119 111 111 105 100 97 94 89 88 83 78 74 70 68 64 61 59 56 54 50 48 49 47 43 40 40 37 36 39 36 40 43 41 44
52 59 68 79 86 98 108 113 114 116 120 116 113 110 104 103 99 92 89 85 80 77 74 70 68 64 65 62 58 54 51 51 50 47 45 40 37 36 39 41 39 39 42 42
46 55 63 73 78 83 92 105 111 113 112 117 114 113 109 107 104 88 88 85 83 79 76 74 70 69 68 63 62 58 53 52 52 49 46 40 39 38 36 38 40 37 40 42
40 46 55 64 67 74 81 96 107 111 110 118 118 116 113 108 103 98 95 88 84 83 81 77 75 73 72 69 65 60 58 56 50 50 47 44 41 39 38 37 38 41 40 44
35 37 47 57 64 71 79 88 97 102 109 114 119 119 115 109 104 101 98 92 87 83 81 78 78 76 75 72 66 63 60 56 53 53 50 47 44 42 40 39 39 39 43 42
30 34 42 52 60 65 75 84 88 94 103 110 117 119 116 112 108 102 99 97 90 85 82 81 80 80 77 70 67 65 64 62 59 56 55 51 48 44 41 40 41 39 41 45
25 30 37 45 51 58 67 76 80 89 99 110 115 119 118 114 111 105 100 99 94 91 86 83 82 80 74 70 68 66 66 64 62 58 57 53 51 48 44 42 41 41 41 44
23 27 32 36 42 48 56 68 77 87 94 101 111 117 119 116 113 107 103 97 97 96 90 86 82 71 69 71 70 67 66 65 64 62 60 56 53 50 46 43 43 43 45 46
Wind_Direction
231 229 231 229 231 229 229 232 235 234 226 229 230 214 208 209 219 212 218 215 220 219 201 90 359 341 162 139 187 172 173 174 170 159 155 151 137 128 120 113 102 97 94 99
235 229 229 229 229 230 227 228 233 230 228 223 220 219 216 217 218 218 221 224 212 244 196 211 312 308 168 158 181 181 172 184 185 184 174 168 156 144 125 120 104 93 94 96
232 230 232 228 228 228 226 226 227 230 226 223 218 218 219 219 219 222 220 226 218 227 253 197 207 208 218 231 171 192 177 178 190 194 185 186 181 160 142 130 118 104 92 89
233 232 232 231 228 228 227 225 227 230 228 225 218 214 220 222 219 218 219 219 226 221 233 196 194 166 196 238 185 188 186 180 185 188 187 189 192 185 169 148 135 116 95 90
233 232 229 230 228 226 226 226 226 226 228 229 221 216 220 222 222 218 220 214 221 222 241 209 183 166 171 232 211 187 197 184 184 184 189 195 200 197 192 172 155 141 122 95
232 231 230 230 229 226 226 225 226 226 224 226 225 220 220 221 222 219 221 217 223 229 234 211 198 184 165 192 200 186 204 195 187 190 196 201 199 198 197 195 196 187 184 133
231 230 229 228 229 228 226 224 225 226 225 220 224 220 220 223 225 222 223 220 223 229 221 217 208 198 182 183 194 195 194 199 196 198 200 202 206 203 199 206 214 225 237 263
231 229 228 227 228 228 226 226 224 224 223 218 221 218 222 221 222 222 219 222 216 221 221 222 207 204 203 199 203 219 206 200 203 204 202 208 209 212 214 219 222 227 246 257
232 229 228 226 225 227 226 227 225 222 222 219 219 218 220 221 223 221 218 220 218 222 222 217 222 209 209 208 202 201 208 219 217 214 209 211 214 216 221 230 235 233 244 255
229 230 225 225 224 224 225 223 224 223 221 217 218 219 218 221 222 220 216 215 219 219 219 217 221 223 210 222 219 215 214 213 223 230 227 223 220 220 223 232 238 240 244 254
227 228 226 222 223 223 223 222 223 223 218 215 215 215 220 217 220 221 217 216 216 217 216 219 220 229 219 219 239 219 219 215 212 215 224 225 225 223 225 230 236 240 244 247
226 225 226 222 221 222 222 222 220 220 217 216 215 213 221 216 219 221 216 217 217 217 215 218 219 227 225 218 227 230 214 218 216 216 220 223 224 223 224 227 230 236 241 240
223 222 222 222 218 220 220 219 219 218 217 214 214 212 220 220 218 220 217 215 217 216 215 216 214 217 222 221 216 220 228 227 222 224 224 222 226 228 226 227 228 231 235 239
222 220 220 220 219 219 219 217 218 217 215 213 213 213 218 220 218 219 220 215 216 217 216 216 213 214 217 219 216 215 220 225 224 230 227 230 227 233 235 233 231 233 235 239
223 220 218 220 220 219 219 218 217 216 215 214 212 210 217 220 218 219 220 217 215 216 217 218 215 216 216 216 221 214 219 221 219 229 233 230 233 234 238 238 234 233 236 241
226 222 219 219 221 218 216 216 216 215 212 213 211 209 219 220 217 217 217 219 215 215 216 216 215 218 219 216 216 220 217 222 224 223 229 236 236 236 235 237 236 235 236 240
228 226 222 219 221 220 216 215 216 214 211 211 210 208 215 217 217 216 217 218 218 214 215 214 213 216 217 217 215 217 220 222 226 228 231 236 238 240 238 238 237 238 237 242
227 226 224 222 221 220 217 215 215 214 211 209 209 209 210 218 220 215 217 218 218 217 215 215 213 215 218 219 220 219 218 224 228 231 233 236 238 238 240 241 238 240 240 240
225 222 223 223 221 220 220 218 215 214 213 209 208 209 210 216 220 214 213 217 218 218 218 216 216 215 218 219 221 222 221 225 229 232 234 237 237 239 237 240 240 241 242 241
224 221 218 221 221 219 220 217 215 213 211 208 207 208 209 213 218 215 212 214 217 218 218 217 215 216 221 221 221 222 222 225 226 230 233 238 242 241 239 239 241 243 243 244
221 217 216 220 217 216 217 217 216 214 210 209 207 207 209 212 217 216 214 213 214 217 218 219 219 217 222 223 226 225 225 226 227 228 233 236 240 241 243 245 242 245 246 243
221 217 216 217 215 212 213 215 215 213 209 206 205 205 208 211 213 214 216 213 212 215 216 218 221 220 222 224 224 227 228 229 228 227 230 233 236 240 241 245 246 242 243 242
224 215 213 214 210 207 210 213 213 211 208 206 204 204 207 210 212 213 214 214 214 214 215 217 220 223 224 225 226 227 229 229 228 228 229 233 235 235 240 244 247 249 245 245
219 213 210 211 211 209 208 209 209 208 207 206 203 203 205 209 211 212 212 213 214 216 215 218 220 223 225 226 227 227 228 227 229 230 231 233 234 236 239 245 245 249 250 248
211 212 211 210 210 209 207 207 205 205 204 205 202 202 204 208 210 213 213 213 214 216 216 218 221 223 225 226 227 228 230 230 231 231 234 233 233 234 237 241 244 250 253 252
204 205 207 206 207 204 204 203 202 200 202 203 202 201 203 207 210 211 214 214 215 217 216 219 222 222 225 228 229 231 232 234 233 232 231 232 232 233 237 241 245 248 251 252
Height
10885 10893 10895 10897 10907 10918 10925 10929 10934 10940 10948 10952 10955 10960 10964 10967 10970 10973 10975 10976 10979 10980 10981 10981 10981 10980 10982 10983 10986 10988 10991 10994 10998 11002 11005 11007 11009 11009 11009 11011 11012 11011 11011 11010
10870 10875 10875 10888 10898 10906 10916 10920 10925 10931 10939 10945 10951 10955 10959 10962 10966 10969 10971 10973 10976 10978 10979 10980 10980 10980 10982 10983 10986 10988 10991 10994 10997 11001 11005 11008 11011 11012 11012 11013 11014 11014 11014 11013
10849 10854 10866 10876 10884 10893 10902 10907 10913 10920 10929 10937 10945 10951 10954 10957 10961 10964 10968 10971 10973 10976 10977 10978 10979 10979 10981 10983 10985 10988 10990 10993 10997 11000 11004 11008 11012 11014 11014 11015 11016 11016 11016 11015
10831 10836 10848 10860 10871 10878 10888 10894 10902 10911 10920 10927 10936 10944 10947 10951 10956 10961 10964 10968 10970 10973 10975 10976 10977 10978 10979 10983 10984 10986 10989 10992 10997 11000 11004 11007 11011 11014 11015 11016 11017 11017 11018 11017
10811 10815 10829 10840 10851 10861 10867 10881 10890 10899 10910 10916 10931 10937 10940 10946 10952 10956 10958 10963 10966 10969 10973 10974 10975 10976 10978 10981 10984 10985 10988 10990 10994 10999 11002 11006 11009 11014 11016 11017 11018 11018 11020 11020
10784 10793 10808 10820 10830 10841 10846 10866 10875 10887 10896 10909 10920 10929 10934 10940 10943 10949 10954 10959 10962 10965 10970 10972 10973 10974 10975 10978 10981 10983 10986 10989 10992 10996 11000 11005 11008 11012 11015 11016 11018 11019 11020 11021
10756 10773 10785 10796 10809 10821 10836 10847 10859 10872 10888 10905 10904 10916 10923 10927 10934 10942 10948 10954 10959 10962 10966 10969 10970 10972 10974 10976 10979 10981 10984 10987 10990 10993 10998 11002 11006 11009 11012 11015 11017 11018 11019 11021
10728 10746 10759 10775 10788 10801 10818 10826 10843 10860 10874 10886 10891 10908 10911 10915 10922 10931 10941 10947 10953 10956 10960 10964 10967 10968 10972 10974 10976 10979 10981 10984 10987 10990 10995 11000 11004 11008 11010 11013 11016 11017 11019 11020
10703 10715 10734 10755 10760 10779 10797 10810 10832 10836 10851 10871 10885 10889 10894 10904 10912 10923 10932 10939 10944 10948 10952 10958 10963 10965 10968 10970 10973 10976 10979 10982 10984 10987 10991 10996 11001 11005 11009 11012 11014 11016 11018 11020
10674 10683 10706 10722 10739 10753 10770 10790 10794 10816 10839 10860 10869 10877 10883 10892 10900 10909 10919 10927 10932 10940 10946 10951 10955 10959 10963 10967 10969 10973 10976 10979 10982 10986 10989 10992 10996 11001 11006 11009 11012 11013 11015 11018
10639 10657 10678 10696 10712 10727 10744 10763 10781 10801 10823 10840 10851 10864 10863 10879 10885 10896 10908 10913 10920 10929 10936 10943 10948 10953 10958 10963 10966 10969 10972 10975 10978 10982 10985 10988 10992 10997 11001 11004 11007 11009 11012 11015
10608 10626 10650 10663 10677 10699 10724 10746 10760 10775 10806 10823 10833 10846 10847 10867 10868 10877 10893 10901 10911 10918 10927 10934 10943 10950 10953 10957 10961 10964 10967 10970 10973 10976 10979 10983 10988 10992 10995 10999 11002 11005 11008 11011
10577 10595 10615 10630 10654 10664 10683 10706 10732 10756 10781 10802 10816 10833 10832 10845 10854 10868 10876 10887 10900 10909 10917 10925 10934 10941 10945 10950 10955 10960 10963 10965 10968 10971 10974 10978 10982 10986 10989 10993 10996 11000 11003 11006
10548 10568 10584 10599 10601 10617 10658 10689 10708 10738 10763 10782 10801 10813 10817 10822 10834 10854 10870 10880 10889 10899 10908 10915 10924 10930 10936 10942 10947 10953 10957 10961 10964 10966 10969 10972 10976 10979 10983 10988 10991 10994 10998 11000
10522 10540 10554 10568 10585 10613 10642 10669 10690 10721 10745 10763 10775 10795 10795 10801 10832 10846 10853 10867 10878 10888 10898 10906 10916 10922 10928 10935 10940 10945 10950 10954 10958 10961 10963 10965 10968 10973 10978 10983 10985 10988 10991 10994
10497 10514 10531 10545 10556 10582 10611 10636 10661 10693 10721 10738 10759 10781 10775 10793 10814 10822 10840 10852 10866 10877 10886 10896 10906 10914 10919 10923 10930 10936 10941 10946 10950 10953 10955 10958 10963 10967 10971 10975 10979 10982 10985 10988
10479 10490 10507 10521 10531 10559 10588 10616 10636 10664 10691 10714 10738 10754 10756 10766 10781 10811 10826 10840 10852 10864 10873 10884 10893 10899 10905 10909 10917 10924 10930 10936 10941 10945 10949 10953 10957 10961 10964 10968 10972 10974 10978 10982
10455 10470 10484 10495 10513 10534 10562 10577 10610 10640 10668 10690 10710 10734 10751 10748 10772 10797 10812 10826 10838 10850 10862 10872 10880 10887 10892 10900 10906 10913 10921 10927 10932 10938 10943 10946 10949 10952 10957 10960 10963 10966 10971 10974
10437 10448 10462 10474 10493 10512 10528 10568 10593 10618 10642 10677 10697 10716 10732 10738 10748 10776 10795 10810 10825 10839 10850 10860 10869 10875 10881 10888 10894 10902 10910 10916 10923 10929 10934 10937 10941 10944 10948 10951 10953 10957 10961 10965
10423 10434 10444 10452 10473 10492 10511 10539 10564 10590 10617 10653 10676 10699 10710 10722 10729 10750 10779 10797 10811 10823 10835 10846 10855 10864 10868 10874 10883 10892 10899 10906 10912 10918 10922 10928 10933 10936 10938 10942 10945 10949 10952 10956
10408 10416 10427 10433 10451 10476 10497 10521 10545 10566 10605 10630 10658 10679 10689 10700 10715 10752 10767 10784 10797 10809 10820 10831 10841 10849 10855 10865 10873 10882 10889 10895 10899 10907 10914 10919 10923 10926 10930 10934 10938 10940 10943 10946
10398 10407 10416 10423 10443 10462 10481 10496 10518 10547 10580 10606 10633 10653 10671 10684 10705 10726 10740 10762 10781 10792 10803 10815 10826 10835 10842 10850 10860 10870 10877 10883 10892 10898 10903 10908 10913 10917 10921 10925 10928 10930 10933 10935
10391 10399 10407 10415 10427 10442 10459 10476 10497 10528 10562 10583 10609 10634 10655 10671 10690 10711 10726 10747 10764 10777 10790 10802 10811 10820 10828 10839 10851 10859 10866 10874 10881 10885 10892 10898 10904 10908 10912 10916 10919 10921 10924 10927
10386 10391 10398 10405 10416 10431 10444 10460 10483 10514 10542 10565 10592 10618 10640 10655 10673 10689 10713 10731 10748 10761 10777 10787 10797 10804 10815 10830 10840 10848 10853 10860 10867 10874 10880 10887 10893 10899 10903 10906 10909 10911 10914 10917
10382 10387 10391 10400 10411 10424 10436 10453 10475 10503 10527 10547 10573 10601 10622 10638 10657 10672 10694 10715 10732 10743 10759 10772 10782 10794 10807 10818 10826 10836 10842 10851 10857 10864 10869 10875 10880 10886 10891 10894 10897 10900 10903 10904
10380 10383 10388 10397 10406 10418 10433 10448 10463 10486 10512 10537 10560 10584 10605 10622 10640 10661 10679 10700 10716 10727 10744 10758 10769 10785 10794 10804 10815 10824 10832 10840 10844 10850 10854 10861 10869 10875 10880 10884 10885 10886 10888 10889